[[{"header":{"parameterUnit":"m.s-1","parameterCategory":1,"la1":30.2991,"la2":30.254,"lo1":-89.0895,"lo2":-89.0444,"dy":0.0017,"dx":0.0017,"nx":28,"ny":28,"refTime":"2023-09-12T21:00:00:Z","depth":0,"parameterNumber":2,"parameterNumberName":"U-component_of_WINDS"},"data":[0,0,0,0,0,0,0,0,0,0,0,0,0,0,0,0,0,0,0,0,0,0,0,0,0,0,0,0,0,0,0,0,0,0,0,0,0,0,0,0,0,0,0,0,0,0,0,0,0,0,0,0,0,0,0,0,0,0,-1.1898,-1.1897,0,-1.1785,-1.1784,-1.1783,-1.1713,-1.1713,-1.1712,-1.1712,-1.1592,-1.1589,-1.1586,0,0,0,0,0,0,0,0,0,0,0,0,0,-1.2049,-1.2047,-1.1898,-1.1897,-1.1895,-1.1785,-1.1784,-1.1782,-1.1713,-1.1713,-1.1712,-1.1712,-1.1593,-1.1589,-1.1586,0,0,0,0,0,0,0,0,0,0,0,0,0,-1.1965,-1.2046,-1.1898,-1.1848,-1.1842,-1.1786,-1.1784,-1.1782,-1.1713,-1.1713,-1.1712,-1.1712,-1.1594,-1.159,-1.1585,-1.1569,0,0,-1.1572,-1.157,0,0,0,0,0,0,0,0,-1.197,-1.1959,-1.1857,-1.1851,-1.1845,-1.1763,-1.1793,-1.1711,-1.1713,-1.1762,-1.1712,-1.1711,-1.1649,-1.164,-1.162,-1.1564,-1.1559,-1.1572,-1.1569,-1.1567,-1.1566,0,0,0,0,0,0,0,-1.1976,-1.1964,-1.1853,-1.1855,-1.1848,-1.1829,-1.1817,-1.1777,-1.171,-1.1758,-1.1752,-1.174,-1.1645,-1.1624,-1.1616,-1.1557,-1.1572,-1.1568,-1.1565,-1.1564,-1.1482,-1.1482,0,0,0,0,0,0,-1.199,-1.1969,-1.1857,-1.185,-1.1907,-1.1827,-1.1813,-1.1789,-1.171,-1.1697,-1.1741,-1.1737,-1.1632,-1.1622,-1.1612,-1.1588,-1.1567,-1.1563,-1.1561,-1.1481,-1.1482,-1.1482,0,0,0,0,0,0,-1.1994,-1.1981,-1.1861,-1.1908,-1.1892,-1.1825,-1.1799,-1.1788,-1.1766,-1.1697,-1.1684,-1.1732,-1.1631,-1.1618,-1.1581,-1.1583,-1.1561,-1.1558,-1.1481,-1.1481,-1.1482,-1.154,0,0,0,0,0,0,-1.1998,-1.1983,-1.1977,-1.1909,-1.1889,-1.1834,-1.1799,-1.1786,-1.176,-1.1754,-1.1685,-1.1673,-1.1629,-1.1588,-1.1577,-1.1576,-1.1554,-1.148,-1.1481,-1.1482,-1.1537,-1.1542,-1.1547,0,0,0,0,0,-1.2004,-1.1997,-1.1977,-1.1964,-1.1881,-1.1834,-1.1823,-1.1774,-1.176,-1.1753,-1.1709,-1.1675,-1.1585,-1.1584,-1.1571,-1.157,-1.148,-1.1481,-1.1482,-1.1535,-1.1541,-1.1546,0,0,0,0,0,0,-1.2065,-1.1987,-1.1964,-1.1935,-1.1892,-1.1822,-1.1812,-1.1782,-1.1741,-1.1737,-1.1677,-1.1662,-1.163,-1.1596,-1.1598,-1.155,-1.1528,-1.1527,-1.1574,-1.1579,-1.1583,-1.1592,-1.1551,0,0,0,0,0,-1.2076,-1.2046,-1.1978,-1.1959,-1.1938,-1.1879,-1.1857,-1.1823,-1.1776,-1.1757,-1.1709,-1.1663,-1.1624,-1.1599,-1.156,-1.1532,-1.1516,-1.1525,-1.1529,-1.1533,-1.1533,-1.1515,-1.1518,-1.1485,-1.1485,-1.1485,0,0,-1.2096,-1.205,-1.2034,-1.197,-1.1933,-1.1901,-1.1864,-1.1833,-1.1809,-1.1751,-1.1714,-1.1678,-1.1622,-1.159,-1.1573,-1.156,-1.1538,-1.1535,-1.1538,-1.1535,-1.1516,-1.152,-1.1522,-1.1486,-1.1486,-1.1485,0,0,-1.2118,-1.208,-1.206,-1.2024,-1.1968,-1.1929,-1.1924,-1.1859,-1.1834,-1.1796,-1.1752,-1.1721,-1.1655,-1.1618,-1.159,-1.1598,-1.1565,-1.1586,-1.161,-1.1594,-1.1596,-1.1598,-1.1601,-1.1602,-1.1586,-1.1586,-1.1586,0,-1.215,-1.2103,-1.2053,-1.2024,-1.1997,-1.1945,-1.1923,-1.189,-1.1824,-1.1806,-1.1793,-1.1709,-1.1668,-1.1626,-1.1628,-1.1607,-1.1599,-1.1594,-1.16,-1.1602,-1.1603,-1.1604,-1.1605,-1.1589,-1.1588,-1.1588,-1.1588,0,-1.2145,-1.2113,-1.2103,-1.2042,-1.2014,-1.1989,-1.1933,-1.191,-1.1879,-1.1841,-1.1802,-1.1751,-1.17,-1.1688,-1.1656,-1.1641,-1.1635,-1.1612,-1.1589,-1.161,-1.161,-1.161,-1.1593,-1.1592,-1.1591,-1.159,0,0,-1.2202,-1.2115,-1.2112,-1.2083,-1.2019,-1.1992,-1.1964,-1.1916,-1.1897,-1.1853,-1.1828,-1.1773,-1.1752,-1.172,-1.1684,-1.167,-1.1679,-1.1648,-1.1646,-1.1656,-1.1659,-1.1677,-1.1678,-1.1658,-1.1657,-1.1657,-1.1663,0,-1.2214,-1.2163,-1.2117,-1.2082,-1.2052,-1.2002,-1.1977,-1.1934,-1.1898,-1.1865,-1.1824,-1.1787,-1.1762,-1.1742,-1.1726,-1.1682,-1.1679,-1.168,-1.1632,-1.1631,-1.1647,-1.1678,-1.1697,-1.1705,-1.1663,-1.1663,-1.1663,0,-1.2221,-1.2181,-1.2144,-1.2082,-1.2067,-1.2047,-1.1999,-1.1969,-1.1918,-1.1893,-1.1858,-1.182,-1.1787,-1.1768,-1.1721,-1.1724,-1.1701,-1.1676,-1.1675,-1.1668,-1.1648,-1.1672,-1.1706,-1.1708,-1.1663,-1.1663,-1.1663,0,-1.2266,-1.2203,-1.2172,-1.2149,-1.2077,-1.2063,-1.2032,-1.1982,-1.1956,-1.1913,-1.1895,-1.1849,-1.1824,-1.1788,-1.1738,-1.1729,-1.1696,-1.1673,-1.1673,-1.1675,-1.1668,-1.1669,-1.1699,-1.1655,-1.1655,-1.1654,-1.1654,0,-1.2284,-1.2263,-1.2191,-1.2173,-1.2147,-1.2094,-1.207,-1.2034,-1.199,-1.1962,-1.1916,-1.1891,-1.1827,-1.1794,-1.1754,-1.1721,-1.171,-1.1687,-1.1677,-1.1691,-1.1694,-1.1675,-1.1674,-1.1655,-1.1655,-1.1655,-1.1655,0,-1.233,-1.2281,-1.2245,-1.2179,-1.2162,-1.2147,-1.209,-1.2069,-1.2031,-1.1996,-1.1985,-1.1924,-1.1882,-1.1829,-1.1771,-1.1744,-1.1715,-1.17,-1.1733,-1.1727,-1.173,-1.173,-1.1748,-1.1748,-1.1704,-1.1705,-1.1705,0,-1.2345,-1.2328,-1.2261,-1.224,-1.2211,-1.2177,-1.2151,-1.2097,-1.2071,-1.2013,-1.1999,-1.1955,-1.1916,-1.1852,-1.1801,-1.1756,-1.1738,-1.1748,-1.1731,-1.1746,-1.1738,-1.174,-1.1737,-1.1752,-1.1753,-1.1753,-1.1754,0,-1.2376,-1.2353,-1.2317,-1.2273,-1.2243,-1.2205,-1.2166,-1.2151,-1.2089,-1.2062,-1.202,-1.199,-1.1931,-1.1887,-1.1835,-1.1801,-1.1767,-1.176,-1.1757,-1.1771,-1.1791,-1.178,-1.1744,-1.1759,-1.1759,-1.1758,-1.1758,-1.1758,-1.2406,-1.2389,-1.2339,-1.2301,-1.2266,-1.223,-1.2207,-1.2166,-1.213,-1.2079,-1.2049,-1.2008,-1.1958,-1.1885,-1.1853,-1.1819,-1.1806,-1.1802,-1.1801,-1.1801,-1.1806,-1.1798,-1.1809,-1.1809,-1.1809,-1.1808,-1.1808,0,-1.2435,-1.2401,-1.2366,-1.2312,-1.2282,-1.2254,-1.2209,-1.2185,-1.215,-1.2106,-1.207,-1.2021,-1.1978,-1.1925,-1.1878,-1.1861,-1.1844,-1.185,-1.1851,-1.1843,-1.182,-1.1827,-1.1865,-1.1865,-1.1865,-1.1865,-1.1865,-1.1865,-1.2446,-1.2415,-1.2386,-1.2337,-1.2302,-1.2262,-1.2239,-1.2205,-1.217,-1.2118,-1.2083,-1.2049,-1.2001,-1.195,-1.1909,-1.1894,-1.1879,-1.189,-1.1871,-1.185,-1.1845,-1.184,-1.1846,-1.1887,-1.1887,-1.1896,-1.1897,-1.1897]},{"header":{"parameterUnit":"m.s-1","parameterCategory":1,"la1":30.2991,"la2":30.254,"lo1":-89.0895,"lo2":-89.0444,"dy":0.0017,"dx":0.0017,"nx":28,"ny":28,"refTime":"2023-09-12T21:00:00:Z","depth":0,"parameterNumber":3,"parameterNumberName":"V-component_of_WINDS"},"data":[0,0,0,0,0,0,0,0,0,0,0,0,0,0,0,0,0,0,0,0,0,0,0,0,0,0,0,0,0,0,0,0,0,0,0,0,0,0,0,0,0,0,0,0,0,0,0,0,0,0,0,0,0,0,0,0,0,0,2.9298,2.9297,0,2.9255,2.9254,2.9254,2.9284,2.9285,2.9286,2.9288,2.9236,2.9233,2.923,0,0,0,0,0,0,0,0,0,0,0,0,0,2.9399,2.9397,2.9298,2.9297,2.9297,2.9255,2.9254,2.9254,2.9283,2.9285,2.9287,2.9288,2.9237,2.9233,2.923,0,0,0,0,0,0,0,0,0,0,0,0,0,2.9355,2.9397,2.9298,2.9307,2.9307,2.9255,2.9254,2.9254,2.9283,2.9285,2.9287,2.9289,2.9238,2.9234,2.923,2.9164,0,0,2.9218,2.9216,0,0,0,0,0,0,0,0,2.9358,2.9352,2.9306,2.9306,2.9306,2.9277,2.9271,2.9223,2.9283,2.9292,2.9288,2.929,2.9247,2.9243,2.923,2.9162,2.916,2.9217,2.9215,2.9213,2.9212,0,0,0,0,0,0,0,2.9361,2.9354,2.9281,2.9305,2.9306,2.9311,2.9307,2.9262,2.9258,2.9291,2.9293,2.9288,2.9248,2.9234,2.9229,2.9159,2.9217,2.9214,2.9211,2.921,2.9035,2.9032,0,0,0,0,0,0,2.9364,2.9356,2.9282,2.9279,2.9338,2.9307,2.9303,2.9284,2.9259,2.9257,2.9287,2.929,2.9239,2.9233,2.9227,2.9148,2.9213,2.9209,2.9207,2.9037,2.9034,2.9032,0,0,0,0,0,0,2.9366,2.9357,2.9284,2.9318,2.9309,2.9303,2.9282,2.9282,2.9268,2.9256,2.9254,2.9273,2.9241,2.9233,2.918,2.9147,2.9208,2.9204,2.904,2.9036,2.9033,2.8991,0,0,0,0,0,0,2.9369,2.9358,2.9334,2.9318,2.9308,2.9239,2.928,2.928,2.9262,2.9266,2.9243,2.9241,2.9242,2.9186,2.9176,2.9143,2.9201,2.9042,2.9038,2.9034,2.8995,2.8986,2.8979,0,0,0,0,0,2.9373,2.9322,2.9333,2.9324,2.9278,2.9238,2.9231,2.9236,2.9259,2.9235,2.9227,2.9241,2.9153,2.918,2.917,2.9134,2.9044,2.9039,2.9034,2.8999,2.8988,2.8979,0,0,0,0,0,0,2.9332,2.932,2.9332,2.9276,2.9258,2.9243,2.9212,2.9224,2.9197,2.9202,2.9206,2.92,2.9146,2.9135,2.9166,2.907,2.9102,2.9094,2.9079,2.9068,2.9061,2.9064,2.9198,0,0,0,0,0,2.9318,2.9288,2.9278,2.9229,2.922,2.9217,2.92,2.9205,2.9186,2.9177,2.9165,2.9144,2.9111,2.9089,2.9058,2.8994,2.8989,2.8965,2.8957,2.895,2.8943,2.8908,2.8897,2.9015,2.9015,2.9015,0,0,2.9285,2.9275,2.9256,2.9221,2.9208,2.9175,2.9211,2.9174,2.9149,2.9171,2.9121,2.9112,2.9088,2.9029,2.9003,2.9019,2.8909,2.8943,2.8938,2.8935,2.8901,2.889,2.888,2.9011,2.9012,2.9013,0,0,2.921,2.92,2.9158,2.9145,2.9126,2.9125,2.9115,2.9098,2.9094,2.9045,2.906,2.903,2.8973,2.8956,2.8939,2.8859,2.8871,2.8849,2.8806,2.8771,2.8762,2.8754,2.8724,2.8714,2.8842,2.8842,2.8842,0,2.9172,2.9125,2.9134,2.9097,2.9081,2.9103,2.9059,2.9045,2.9015,2.9002,2.9021,2.8952,2.8937,2.8875,2.8856,2.8842,2.8829,2.8851,2.8763,2.8755,2.8747,2.8719,2.8708,2.8839,2.884,2.884,2.884,0,2.9079,2.9046,2.9014,2.8989,2.8969,2.8928,2.893,2.8908,2.8915,2.8911,2.8861,2.8844,2.8811,2.8797,2.8802,2.8735,2.8745,2.8763,2.8796,2.8733,2.8707,2.8696,2.8835,2.8836,2.8837,2.8838,0,0,2.8975,2.8957,2.8945,2.8934,2.8914,2.8888,2.8848,2.8818,2.8799,2.8778,2.8744,2.8697,2.8714,2.8695,2.8699,2.8669,2.8606,2.8691,2.8691,2.8675,2.853,2.8515,2.8503,2.8615,2.8613,2.8611,2.8531,0,2.8899,2.8833,2.884,2.8776,2.8745,2.8765,2.8731,2.8714,2.871,2.8681,2.8675,2.8642,2.8668,2.8657,2.8628,2.862,2.8576,2.8626,2.858,2.8579,2.8585,2.8489,2.8474,2.8399,2.8521,2.8519,2.8518,0,2.88,2.8779,2.8712,2.8699,2.8686,2.8655,2.8628,2.8601,2.8582,2.8581,2.8561,2.8571,2.8529,2.8563,2.8505,2.8538,2.852,2.8513,2.851,2.8505,2.8544,2.848,2.8376,2.8364,2.8502,2.8503,2.8505,0,2.8731,2.8685,2.8639,2.8629,2.8612,2.859,2.8581,2.8564,2.8546,2.8522,2.851,2.848,2.8463,2.8439,2.8439,2.8465,2.8379,2.8414,2.8375,2.8375,2.8355,2.8356,2.8246,2.8345,2.8346,2.8346,2.8346,0,2.8644,2.8602,2.8608,2.858,2.8533,2.8542,2.8494,2.8488,2.8473,2.8443,2.8458,2.8428,2.8431,2.8401,2.84,2.8351,2.8344,2.834,2.834,2.8338,2.8339,2.8326,2.833,2.8343,2.8344,2.8344,2.8345,0,2.8557,2.856,2.8512,2.8501,2.8497,2.8463,2.8452,2.8424,2.8423,2.8383,2.8375,2.837,2.8335,2.8334,2.8292,2.8292,2.8233,2.8239,2.824,2.824,2.8202,2.8205,2.8078,2.8061,2.8173,2.8172,2.8171,0,2.8501,2.847,2.8456,2.8439,2.8429,2.84,2.8382,2.8389,2.8369,2.8346,2.832,2.8288,2.8262,2.8205,2.8196,2.8165,2.817,2.8127,2.8165,2.8164,2.8168,2.8169,2.8166,2.8119,2.8118,2.8117,2.8116,0,2.8401,2.8404,2.838,2.8355,2.8334,2.8314,2.8296,2.828,2.8284,2.8261,2.8227,2.8207,2.8167,2.8134,2.8103,2.8092,2.8104,2.8105,2.8094,2.8091,2.8093,2.8091,2.8219,2.8107,2.8108,2.8109,2.8109,2.811,2.8328,2.8301,2.8288,2.8259,2.8247,2.823,2.8204,2.8199,2.8172,2.8142,2.8147,2.8109,2.809,2.8051,2.8038,2.8007,2.8021,2.8005,2.8001,2.7997,2.7993,2.8099,2.8001,2.8001,2.8001,2.8002,2.8002,0,2.8227,2.8221,2.8195,2.817,2.8147,2.8164,2.8145,2.8124,2.8091,2.8075,2.805,2.801,2.7978,2.7968,2.7937,2.7914,2.7918,2.7905,2.7906,2.7903,2.7982,2.7994,2.7902,2.7902,2.7902,2.7902,2.7902,2.7902,2.8173,2.8129,2.813,2.808,2.8072,2.8037,2.8025,2.8009,2.7996,2.7952,2.7927,2.7921,2.7907,2.7875,2.7845,2.7843,2.783,2.7814,2.7814,2.7888,2.7898,2.7907,2.7919,2.7812,2.7812,2.7738,2.7737,2.7737]}]]